QPF
0.00 0.00 0.00 0.00 0.00 0.00 0.00 0.00 0.00 0.00 0.01 0.00 0.00 0.00 0.00 0.00 0.00 0.00 0.00 0.00 0.00 0.00 0.00 0.00 0.00 0.00 0.00 0.00 0.01 0.01 0.01 0.02 0.02 0.02 0.01 0.01 0.00 0.00 0.00 0.00 0.00 0.00 0.00 0.00 0.00 0.00 0.00 0.01 0.01
0.00 0.00 0.00 0.00 0.00 0.00 0.00 0.00 0.00 0.01 0.01 0.01 0.00 0.00 0.00 0.00 0.00 0.00 0.00 0.00 0.00 0.00 0.00 0.00 0.00 0.00 0.00 0.00 0.00 0.01 0.01 0.01 0.01 0.01 0.01 0.01 0.00 0.00 0.00 0.00 0.00 0.00 0.00 0.00 0.00 0.00 0.00 0.01 0.01
0.00 0.00 0.00 0.00 0.00 0.00 0.00 0.00 0.00 0.00 0.01 0.00 0.00 0.00 0.00 0.00 0.00 0.00 0.00 0.00 0.00 0.00 0.00 0.00 0.00 0.00 0.00 0.00 0.00 0.00 0.00 0.00 0.01 0.00 0.00 0.00 0.00 0.00 0.00 0.00 0.00 0.00 0.01 0.01 0.01 0.00 0.00 0.01 0.00
0.00 0.00 0.00 0.00 0.00 0.00 0.00 0.00 0.00 0.00 0.00 0.00 0.00 0.00 0.00 0.00 0.00 0.00 0.00 0.00 0.00 0.00 0.00 0.00 0.01 0.00 0.00 0.00 0.00 0.00 0.00 0.00 0.00 0.00 0.00 0.00 0.00 0.00 0.00 0.00 0.00 0.01 0.01 0.02 0.01 0.00 0.00 0.01 0.01
0.00 0.00 0.00 0.00 0.00 0.00 0.00 0.00 0.00 0.00 0.00 0.00 0.00 0.00 0.00 0.00 0.00 0.00 0.00 0.00 0.00 0.00 0.00 0.00 0.01 0.01 0.00 0.00 0.00 0.00 0.00 0.00 0.00 0.00 0.00 0.00 0.00 0.00 0.00 0.01 0.01 0.02 0.02 0.03 0.02 0.01 0.01 0.01 0.01
0.00 0.00 0.00 0.00 0.00 0.00 0.00 0.00 0.00 0.00 0.00 0.00 0.00 0.00 0.00 0.00 0.00 0.00 0.00 0.00 0.00 0.00 0.00 0.01 0.01 0.01 0.01 0.00 0.00 0.00 0.00 0.01 0.01 0.01 0.00 0.00 0.00 0.00 0.00 0.01 0.01 0.03 0.02 0.02 0.01 0.01 0.01 0.01 0.01
0.00 0.00 0.00 0.00 0.00 0.00 0.00 0.00 0.00 0.00 0.00 0.00 0.00 0.00 0.00 0.00 0.00 0.00 0.00 0.00 0.00 0.00 0.01 0.02 0.02 0.02 0.01 0.01 0.01 0.01 0.01 0.01 0.02 0.01 0.01 0.01 0.01 0.01 0.01 0.02 0.02 0.02 0.02 0.02 0.01 0.01 0.01 0.01 0.01
0.00 0.00 0.00 0.00 0.00 0.00 0.00 0.00 0.00 0.00 0.00 0.00 0.00 0.00 0.00 0.00 0.00 0.00 0.00 0.00 0.01 0.01 0.01 0.02 0.03 0.03 0.03 0.02 0.02 0.02 0.02 0.02 0.02 0.02 0.02 0.02 0.02 0.02 0.03 0.02 0.02 0.02 0.03 0.03 0.02 0.02 0.01 0.01 0.00
0.00 0.00 0.00 0.00 0.00 0.00 0.00 0.00 0.00 0.00 0.00 0.00 0.00 0.00 0.00 0.00 0.01 0.02 0.01 0.01 0.01 0.01 0.01 0.02 0.02 0.03 0.04 0.04 0.03 0.03 0.04 0.04 0.04 0.04 0.05 0.05 0.05 0.05 0.04 0.03 0.03 0.03 0.03 0.03 0.04 0.05 0.04 0.03 0.02
0.00 0.00 0.00 0.00 0.00 0.00 0.00 0.00 0.00 0.00 0.01 0.01 0.00 0.00 0.00 0.01 0.05 0.03 0.00 0.00 0.01 0.01 0.01 0.02 0.02 0.03 0.03 0.03 0.04 0.05 0.06 0.07 0.06 0.07 0.08 0.08 0.08 0.07 0.04 0.04 0.03 0.04 0.05 0.05 0.07 0.07 0.06 0.05 0.05
0.00 0.00 0.00 0.00 0.00 0.00 0.00 0.00 0.00 0.01 0.01 0.00 0.00 0.00 0.00 0.01 0.01 0.01 0.01 0.01 0.01 0.01 0.01 0.02 0.03 0.03 0.04 0.04 0.04 0.06 0.07 0.08 0.08 0.08 0.10 0.11 0.11 0.10 0.08 0.08 0.06 0.07 0.09 0.11 0.12 0.11 0.09 0.08 0.07
0.00 0.00 0.00 0.00 0.00 0.00 0.00 0.00 0.01 0.01 0.01 0.01 0.01 0.00 0.00 0.01 0.02 0.03 0.02 0.01 0.01 0.01 0.01 0.02 0.03 0.03 0.04 0.05 0.05 0.06 0.08 0.11 0.12 0.11 0.14 0.16 0.17 0.15 0.13 0.11 0.11 0.12 0.14 0.15 0.16 0.17 0.16 0.13 0.10
0.00 0.00 0.00 0.00 0.00 0.00 0.00 0.01 0.02 0.04 0.01 0.01 0.01 0.01 0.01 0.01 0.01 0.02 0.02 0.02 0.02 0.02 0.01 0.02 0.02 0.03 0.04 0.05 0.05 0.06 0.10 0.13 0.14 0.16 0.16 0.16 0.18 0.18 0.18 0.17 0.14 0.14 0.15 0.16 0.16 0.18 0.18 0.17 0.16
0.00 0.00 0.00 0.00 0.00 0.00 0.01 0.01 0.04 0.04 0.01 0.01 0.01 0.02 0.02 0.02 0.01 0.01 0.02 0.04 0.05 0.04 0.03 0.03 0.03 0.05 0.06 0.06 0.08 0.11 0.14 0.15 0.15 0.15 0.14 0.15 0.18 0.21 0.19 0.16 0.17 0.21 0.24 0.21 0.18 0.17 0.17 0.17 0.17
0.00 0.00 0.00 0.00 0.00 0.00 0.01 0.02 0.02 0.02 0.01 0.01 0.02 0.03 0.03 0.02 0.02 0.02 0.03 0.05 0.06 0.05 0.05 0.04 0.06 0.08 0.08 0.09 0.11 0.13 0.14 0.13 0.12 0.11 0.12 0.12 0.12 0.14 0.15 0.15 0.14 0.16 0.17 0.16 0.13 0.11 0.11 0.11 0.11
0.00 0.00 0.00 0.00 0.01 0.01 0.01 0.03 0.02 0.01 0.01 0.02 0.02 0.05 0.05 0.03 0.03 0.03 0.03 0.05 0.05 0.05 0.07 0.07 0.09 0.10 0.08 0.09 0.10 0.09 0.10 0.10 0.09 0.10 0.09 0.08 0.08 0.09 0.10 0.11 0.10 0.09 0.08 0.09 0.09 0.10 0.10 0.09 0.09
0.00 0.00 0.00 0.00 0.01 0.01 0.01 0.02 0.02 0.01 0.02 0.02 0.02 0.03 0.03 0.04 0.05 0.05 0.03 0.03 0.05 0.06 0.07 0.08 0.06 0.08 0.06 0.05 0.05 0.05 0.07 0.07 0.06 0.06 0.04 0.04 0.04 0.05 0.06 0.08 0.07 0.05 0.05 0.06 0.06 0.07 0.07 0.07 0.06
0.00 0.00 0.00 0.01 0.01 0.01 0.03 0.03 0.03 0.02 0.02 0.02 0.03 0.03 0.03 0.04 0.05 0.04 0.04 0.06 0.08 0.11 0.11 0.07 0.04 0.06 0.06 0.04 0.03 0.04 0.08 0.10 0.06 0.04 0.02 0.01 0.02 0.03 0.03 0.04 0.03 0.02 0.02 0.03 0.03 0.03 0.05 0.05 0.05
0.00 0.00 0.01 0.01 0.01 0.02 0.03 0.05 0.04 0.03 0.03 0.03 0.04 0.04 0.05 0.05 0.04 0.04 0.05 0.08 0.08 0.07 0.05 0.03 0.03 0.03 0.03 0.03 0.03 0.03 0.04 0.03 0.01 0.01 0.01 0.01 0.02 0.02 0.02 0.03 0.02 0.01 0.01 0.01 0.02 0.02 0.02 0.02 0.04
0.00 0.00 0.00 0.01 0.01 0.02 0.03 0.04 0.05 0.04 0.05 0.04 0.06 0.05 0.03 0.04 0.04 0.04 0.05 0.06 0.04 0.02 0.01 0.02 0.01 0.02 0.02 0.01 0.02 0.01 0.01 0.01 0.01 0.01 0.01 0.02 0.02 0.01 0.01 0.02 0.02 0.02 0.02 0.02 0.02 0.02 0.02 0.02 0.03
0.00 0.00 0.00 0.01 0.01 0.01 0.03 0.04 0.04 0.04 0.05 0.04 0.04 0.04 0.02 0.02 0.04 0.04 0.03 0.02 0.02 0.01 0.01 0.01 0.01 0.01 0.01 0.01 0.01 0.01 0.02 0.01 0.01 0.01 0.01 0.01 0.01 0.01 0.01 0.01 0.02 0.02 0.02 0.02 0.02 0.03 0.02 0.02 0.02
0.00 0.00 0.00 0.01 0.02 0.03 0.03 0.06 0.04 0.03 0.04 0.02 0.02 0.01 0.01 0.01 0.02 0.02 0.01 0.00 0.00 0.00 0.01 0.01 0.01 0.01 0.01 0.01 0.01 0.02 0.02 0.02 0.02 0.01 0.01 0.01 0.01 0.01 0.01 0.01 0.01 0.02 0.01 0.02 0.02 0.02 0.02 0.02 0.01
0.00 0.00 0.00 0.01 0.01 0.02 0.01 0.03 0.02 0.01 0.02 0.02 0.01 0.01 0.01 0.00 0.00 0.00 0.00 0.00 0.00 0.00 0.00 0.00 0.01 0.01 0.00 0.00 0.01 0.01 0.01 0.01 0.01 0.01 0.01 0.02 0.01 0.01 0.01 0.01 0.01 0.01 0.01 0.01 0.01 0.02 0.02 0.01 0.01
0.00 0.00 0.00 0.01 0.01 0.03 0.01 0.01 0.01 0.00 0.00 0.00 0.00 0.00 0.00 0.00 0.00 0.00 0.00 0.00 0.00 0.00 0.00 0.00 0.00 0.00 0.00 0.00 0.00 0.00 0.01 0.01 0.01 0.01 0.01 0.01 0.01 0.01 0.01 0.01 0.01 0.01 0.01 0.01 0.01 0.02 0.02 0.02 0.02
0.00 0.00 0.01 0.01 0.02 0.03 0.00 0.00 0.00 0.00 0.00 0.00 0.00 0.00 0.00 0.00 0.00 0.00 0.00 0.00 0.00 0.00 0.00 0.00 0.00 0.00 0.00 0.00 0.00 0.00 0.01 0.01 0.01 0.01 0.01 0.01 0.00 0.00 0.00 0.00 0.01 0.01 0.01 0.01 0.01 0.01 0.02 0.02 0.03
0.00 0.00 0.01 0.01 0.01 0.01 0.00 0.00 0.00 0.00 0.00 0.00 0.00 0.00 0.00 0.00 0.00 0.00 0.00 0.00 0.00 0.00 0.00 0.00 0.00 0.00 0.00 0.00 0.00 0.00 0.01 0.00 0.00 0.01 0.00 0.00 0.00 0.00 0.00 0.00 0.01 0.00 0.00 0.00 0.00 0.00 0.01 0.01 0.02
0.00 0.00 0.00 0.00 0.00 0.00 0.00 0.00 0.00 0.00 0.00 0.00 0.00 0.00 0.00 0.00 0.00 0.00 0.00 0.00 0.00 0.00 0.00 0.00 0.00 0.00 0.00 0.00 0.00 0.00 0.00 0.00 0.00 0.00 0.00 0.00 0.00 0.00 0.00 0.00 0.00 0.00 0.00 0.00 0.00 0.00 0.01 0.01 0.01
0.00 0.00 0.00 0.00 0.00 0.00 0.00 0.00 0.00 0.00 0.00 0.00 0.00 0.00 0.00 0.00 0.00 0.00 0.00 0.00 0.00 0.00 0.00 0.00 0.00 0.00 0.00 0.00 0.00 0.00 0.00 0.00 0.00 0.00 0.00 0.00 0.00 0.00 0.00 0.00 0.00 0.00 0.00 0.00 0.00 0.00 0.00 0.01 0.01
0.00 0.00 0.00 0.00 0.00 0.00 0.00 0.00 0.00 0.00 0.00 0.00 0.00 0.00 0.00 0.00 0.00 0.00 0.00 0.00 0.00 0.00 0.00 0.00 0.00 0.00 0.00 0.00 0.00 0.00 0.00 0.00 0.00 0.00 0.00 0.00 0.00 0.00 0.00 0.00 0.00 0.00 0.00 0.00 0.01 0.00 0.00 0.00 0.00
0.00 0.00 0.00 0.00 0.00 0.00 0.00 0.00 0.00 0.00 0.00 0.00 0.00 0.00 0.00 0.00 0.00 0.00 0.00 0.00 0.00 0.00 0.00 0.00 0.00 0.00 0.00 0.00 0.00 0.00 0.00 0.00 0.00 0.00 0.00 0.00 0.00 0.00 0.00 0.00 0.00 0.00 0.00 0.00 0.01 0.01 0.01 0.01 0.01
MSLP
1011.55 1012.06 1012.54 1012.90 1013.04 1012.91 1012.51 1011.89 1011.16 1010.44 1009.85 1009.47 1009.32 1009.39 1009.60 1009.88 1010.13 1010.32 1010.45 1010.54 1010.65 1010.86 1011.19 1011.67 1012.26 1012.88 1013.47 1013.95 1014.29 1014.48 1014.57 1014.62 1014.71 1014.90 1015.20 1015.60 1016.06 1016.50 1016.87 1017.13 1017.26 1017.29 1017.28 1017.27 1017.31 1017.41 1017.56 1017.74 1017.88
1011.58 1012.11 1012.59 1012.91 1012.98 1012.76 1012.26 1011.56 1010.77 1010.01 1009.41 1009.04 1008.92 1009.01 1009.26 1009.56 1009.84 1010.05 1010.20 1010.32 1010.47 1010.72 1011.12 1011.66 1012.33 1013.03 1013.70 1014.25 1014.65 1014.89 1015.02 1015.09 1015.18 1015.35 1015.62 1015.97 1016.37 1016.74 1017.05 1017.25 1017.34 1017.35 1017.35 1017.37 1017.45 1017.61 1017.82 1018.03 1018.20
1011.68 1012.21 1012.65 1012.89 1012.87 1012.55 1011.98 1011.22 1010.40 1009.66 1009.09 1008.76 1008.69 1008.84 1009.12 1009.44 1009.73 1009.95 1010.10 1010.22 1010.39 1010.66 1011.10 1011.69 1012.41 1013.18 1013.92 1014.54 1015.00 1015.29 1015.46 1015.56 1015.67 1015.83 1016.06 1016.36 1016.69 1016.99 1017.22 1017.35 1017.40 1017.40 1017.39 1017.44 1017.57 1017.77 1018.02 1018.27 1018.45
1011.85 1012.35 1012.72 1012.86 1012.72 1012.31 1011.67 1010.89 1010.08 1009.38 1008.88 1008.63 1008.64 1008.84 1009.16 1009.50 1009.80 1010.01 1010.15 1010.27 1010.44 1010.72 1011.17 1011.79 1012.54 1013.34 1014.11 1014.77 1015.28 1015.62 1015.83 1015.97 1016.08 1016.23 1016.44 1016.69 1016.95 1017.18 1017.34 1017.42 1017.43 1017.42 1017.43 1017.50 1017.66 1017.90 1018.18 1018.43 1018.61
1012.09 1012.52 1012.77 1012.80 1012.55 1012.05 1011.36 1010.57 1009.81 1009.18 1008.77 1008.62 1008.70 1008.97 1009.33 1009.70 1010.01 1010.22 1010.35 1010.46 1010.62 1010.90 1011.35 1011.96 1012.70 1013.50 1014.27 1014.94 1015.46 1015.83 1016.07 1016.22 1016.35 1016.49 1016.68 1016.89 1017.10 1017.27 1017.39 1017.43 1017.43 1017.41 1017.43 1017.53 1017.72 1017.98 1018.27 1018.52 1018.68
1012.34 1012.67 1012.81 1012.71 1012.35 1011.78 1011.06 1010.29 1009.58 1009.04 1008.72 1008.67 1008.83 1009.16 1009.57 1009.96 1010.28 1010.50 1010.64 1010.76 1010.92 1011.19 1011.62 1012.20 1012.90 1013.66 1014.39 1015.03 1015.53 1015.89 1016.13 1016.29 1016.42 1016.56 1016.72 1016.91 1017.09 1017.23 1017.32 1017.36 1017.36 1017.36 1017.41 1017.54 1017.75 1018.02 1018.31 1018.55 1018.70
1012.56 1012.78 1012.79 1012.57 1012.13 1011.51 1010.78 1010.04 1009.40 1008.94 1008.72 1008.74 1008.97 1009.35 1009.79 1010.21 1010.55 1010.80 1010.96 1011.11 1011.28 1011.56 1011.96 1012.50 1013.15 1013.83 1014.49 1015.06 1015.50 1015.82 1016.04 1016.18 1016.30 1016.43 1016.59 1016.76 1016.92 1017.06 1017.16 1017.21 1017.23 1017.28 1017.36 1017.52 1017.75 1018.04 1018.32 1018.55 1018.67
1012.70 1012.80 1012.70 1012.38 1011.88 1011.24 1010.54 1009.85 1009.28 1008.90 1008.75 1008.82 1009.09 1009.50 1009.95 1010.39 1010.77 1011.05 1011.27 1011.45 1011.67 1011.96 1012.35 1012.84 1013.42 1014.01 1014.57 1015.05 1015.42 1015.68 1015.84 1015.96 1016.06 1016.18 1016.32 1016.49 1016.65 1016.80 1016.92 1017.00 1017.07 1017.16 1017.29 1017.49 1017.74 1018.03 1018.31 1018.52 1018.63
1012.69 1012.69 1012.51 1012.14 1011.62 1011.00 1010.34 1009.73 1009.24 1008.92 1008.82 1008.92 1009.19 1009.59 1010.05 1010.50 1010.90 1011.23 1011.51 1011.76 1012.03 1012.35 1012.74 1013.20 1013.70 1014.21 1014.67 1015.05 1015.33 1015.51 1015.63 1015.70 1015.77 1015.87 1016.00 1016.17 1016.34 1016.50 1016.65 1016.78 1016.90 1017.04 1017.23 1017.46 1017.73 1018.02 1018.28 1018.48 1018.58
1012.54 1012.46 1012.23 1011.85 1011.36 1010.80 1010.23 1009.71 1009.30 1009.04 1008.95 1009.05 1009.30 1009.67 1010.10 1010.54 1010.97 1011.35 1011.69 1012.02 1012.35 1012.71 1013.11 1013.55 1014.00 1014.42 1014.79 1015.07 1015.27 1015.38 1015.44 1015.48 1015.52 1015.59 1015.71 1015.87 1016.04 1016.23 1016.41 1016.58 1016.76 1016.95 1017.17 1017.43 1017.72 1018.00 1018.25 1018.42 1018.50
1012.26 1012.13 1011.89 1011.55 1011.13 1010.68 1010.22 1009.81 1009.48 1009.26 1009.19 1009.26 1009.46 1009.77 1010.16 1010.58 1011.01 1011.43 1011.84 1012.23 1012.63 1013.03 1013.45 1013.87 1014.28 1014.64 1014.93 1015.14 1015.27 1015.32 1015.33 1015.33 1015.34 1015.40 1015.49 1015.64 1015.82 1016.02 1016.22 1016.44 1016.66 1016.89 1017.15 1017.42 1017.70 1017.97 1018.19 1018.33 1018.38
1011.91 1011.77 1011.56 1011.29 1010.98 1010.66 1010.34 1010.05 1009.80 1009.64 1009.56 1009.59 1009.73 1009.97 1010.29 1010.67 1011.08 1011.52 1011.97 1012.42 1012.86 1013.31 1013.74 1014.16 1014.53 1014.84 1015.08 1015.24 1015.32 1015.34 1015.31 1015.28 1015.27 1015.29 1015.37 1015.50 1015.67 1015.88 1016.11 1016.35 1016.61 1016.87 1017.15 1017.42 1017.69 1017.92 1018.09 1018.19 1018.19
1011.58 1011.46 1011.30 1011.13 1010.95 1010.78 1010.60 1010.44 1010.28 1010.16 1010.08 1010.07 1010.14 1010.30 1010.54 1010.86 1011.25 1011.68 1012.14 1012.61 1013.08 1013.55 1013.99 1014.39 1014.74 1015.03 1015.23 1015.36 1015.41 1015.40 1015.36 1015.30 1015.26 1015.26 1015.32 1015.43 1015.59 1015.80 1016.04 1016.31 1016.59 1016.87 1017.15 1017.42 1017.65 1017.83 1017.95 1017.98 1017.93
1011.36 1011.27 1011.18 1011.11 1011.07 1011.04 1011.01 1010.97 1010.91 1010.83 1010.76 1010.71 1010.72 1010.79 1010.96 1011.21 1011.54 1011.94 1012.38 1012.84 1013.31 1013.76 1014.19 1014.58 1014.91 1015.17 1015.36 1015.47 1015.51 1015.49 1015.43 1015.36 1015.30 1015.27 1015.29 1015.38 1015.54 1015.74 1015.99 1016.27 1016.57 1016.86 1017.14 1017.38 1017.58 1017.70 1017.75 1017.72 1017.59
1011.32 1011.26 1011.24 1011.27 1011.35 1011.45 1011.55 1011.62 1011.64 1011.61 1011.55 1011.47 1011.43 1011.44 1011.53 1011.70 1011.97 1012.31 1012.70 1013.12 1013.55 1013.97 1014.37 1014.73 1015.03 1015.28 1015.46 1015.56 1015.60 1015.57 1015.50 1015.41 1015.32 1015.27 1015.26 1015.33 1015.47 1015.67 1015.92 1016.22 1016.53 1016.83 1017.09 1017.31 1017.46 1017.53 1017.51 1017.41 1017.22
1011.46 1011.43 1011.47 1011.59 1011.76 1011.98 1012.18 1012.34 1012.43 1012.44 1012.39 1012.30 1012.22 1012.18 1012.21 1012.31 1012.51 1012.78 1013.10 1013.45 1013.82 1014.18 1014.53 1014.84 1015.12 1015.35 1015.52 1015.62 1015.66 1015.63 1015.55 1015.44 1015.32 1015.24 1015.20 1015.24 1015.36 1015.55 1015.82 1016.12 1016.44 1016.75 1017.01 1017.20 1017.31 1017.33 1017.25 1017.08 1016.84
1011.76 1011.76 1011.85 1012.03 1012.28 1012.57 1012.85 1013.07 1013.21 1013.26 1013.22 1013.13 1013.03 1012.95 1012.92 1012.97 1013.10 1013.29 1013.53 1013.80 1014.09 1014.38 1014.66 1014.93 1015.18 1015.38 1015.55 1015.65 1015.69 1015.66 1015.57 1015.44 1015.30 1015.18 1015.11 1015.12 1015.22 1015.41 1015.67 1015.99 1016.32 1016.62 1016.87 1017.05 1017.13 1017.11 1016.99 1016.78 1016.50
1012.12 1012.16 1012.29 1012.52 1012.83 1013.17 1013.50 1013.76 1013.93 1013.99 1013.96 1013.87 1013.75 1013.65 1013.59 1013.59 1013.66 1013.78 1013.94 1014.13 1014.34 1014.55 1014.77 1014.99 1015.20 1015.40 1015.56 1015.66 1015.71 1015.68 1015.58 1015.43 1015.26 1015.11 1015.01 1014.99 1015.07 1015.25 1015.52 1015.83 1016.17 1016.47 1016.72 1016.87 1016.93 1016.88 1016.74 1016.52 1016.23
1012.46 1012.55 1012.73 1013.01 1013.36 1013.73 1014.07 1014.35 1014.52 1014.58 1014.54 1014.43 1014.31 1014.19 1014.10 1014.07 1014.10 1014.16 1014.26 1014.38 1014.52 1014.66 1014.83 1015.00 1015.19 1015.37 1015.54 1015.66 1015.71 1015.69 1015.59 1015.43 1015.25 1015.07 1014.94 1014.90 1014.96 1015.12 1015.38 1015.69 1016.02 1016.31 1016.55 1016.69 1016.73 1016.67 1016.52 1016.30 1016.03
1012.71 1012.86 1013.10 1013.43 1013.81 1014.20 1014.54 1014.80 1014.94 1014.97 1014.91 1014.78 1014.64 1014.50 1014.41 1014.36 1014.35 1014.39 1014.44 1014.51 1014.59 1014.69 1014.81 1014.96 1015.13 1015.31 1015.49 1015.63 1015.70 1015.70 1015.62 1015.46 1015.27 1015.08 1014.93 1014.87 1014.90 1015.05 1015.29 1015.58 1015.89 1016.16 1016.37 1016.49 1016.52 1016.45 1016.31 1016.11 1015.87
1012.80 1013.03 1013.35 1013.74 1014.16 1014.56 1014.88 1015.10 1015.19 1015.17 1015.05 1014.88 1014.71 1014.55 1014.45 1014.39 1014.38 1014.40 1014.44 1014.48 1014.54 1014.61 1014.71 1014.84 1015.01 1015.21 1015.40 1015.57 1015.68 1015.71 1015.65 1015.52 1015.33 1015.14 1014.99 1014.91 1014.93 1015.05 1015.26 1015.51 1015.78 1016.02 1016.20 1016.29 1016.30 1016.22 1016.09 1015.91 1015.72
1012.76 1013.09 1013.50 1013.95 1014.40 1014.80 1015.09 1015.25 1015.27 1015.16 1014.97 1014.74 1014.52 1014.35 1014.24 1014.20 1014.20 1014.23 1014.27 1014.32 1014.37 1014.43 1014.52 1014.66 1014.83 1015.05 1015.27 1015.47 1015.62 1015.69 1015.68 1015.58 1015.42 1015.25 1015.10 1015.02 1015.02 1015.11 1015.27 1015.49 1015.71 1015.89 1016.02 1016.07 1016.05 1015.96 1015.83 1015.68 1015.53
1012.62 1013.05 1013.55 1014.08 1014.56 1014.95 1015.19 1015.27 1015.20 1014.99 1014.71 1014.41 1014.15 1013.95 1013.84 1013.81 1013.85 1013.91 1013.99 1014.06 1014.13 1014.20 1014.30 1014.44 1014.62 1014.85 1015.10 1015.33 1015.52 1015.64 1015.68 1015.63 1015.51 1015.37 1015.24 1015.15 1015.14 1015.20 1015.32 1015.47 1015.63 1015.76 1015.83 1015.83 1015.77 1015.66 1015.53 1015.40 1015.28
1012.45 1012.98 1013.56 1014.14 1014.64 1015.01 1015.19 1015.19 1015.01 1014.70 1014.32 1013.95 1013.64 1013.43 1013.33 1013.34 1013.41 1013.53 1013.66 1013.77 1013.87 1013.97 1014.08 1014.23 1014.42 1014.65 1014.91 1015.17 1015.40 1015.56 1015.64 1015.64 1015.57 1015.46 1015.35 1015.27 1015.24 1015.27 1015.34 1015.44 1015.53 1015.59 1015.60 1015.55 1015.45 1015.32 1015.18 1015.06 1014.96
1012.32 1012.92 1013.56 1014.16 1014.66 1014.99 1015.11 1015.01 1014.73 1014.32 1013.86 1013.43 1013.09 1012.87 1012.80 1012.85 1012.99 1013.17 1013.36 1013.53 1013.67 1013.80 1013.92 1014.07 1014.26 1014.49 1014.75 1015.01 1015.25 1015.44 1015.56 1015.60 1015.57 1015.49 1015.41 1015.33 1015.29 1015.29 1015.32 1015.36 1015.39 1015.39 1015.34 1015.24 1015.11 1014.95 1014.80 1014.68 1014.59
1012.25 1012.88 1013.54 1014.14 1014.61 1014.89 1014.93 1014.75 1014.38 1013.89 1013.37 1012.90 1012.54 1012.35 1012.31 1012.42 1012.63 1012.89 1013.15 1013.38 1013.57 1013.73 1013.87 1014.01 1014.18 1014.39 1014.63 1014.88 1015.12 1015.31 1015.45 1015.51 1015.50 1015.46 1015.38 1015.31 1015.26 1015.23 1015.22 1015.21 1015.20 1015.15 1015.05 1014.92 1014.76 1014.58 1014.42 1014.28 1014.19
1012.23 1012.85 1013.49 1014.06 1014.47 1014.68 1014.65 1014.39 1013.96 1013.42 1012.87 1012.40 1012.06 1011.90 1011.93 1012.10 1012.39 1012.72 1013.05 1013.35 1013.58 1013.77 1013.91 1014.05 1014.20 1014.38 1014.58 1014.80 1015.01 1015.19 1015.31 1015.38 1015.38 1015.34 1015.27 1015.20 1015.13 1015.08 1015.04 1015.00 1014.95 1014.87 1014.75 1014.60 1014.42 1014.23 1014.05 1013.91 1013.80
1012.24 1012.81 1013.38 1013.87 1014.21 1014.34 1014.24 1013.94 1013.47 1012.92 1012.38 1011.93 1011.65 1011.55 1011.64 1011.89 1012.24 1012.65 1013.05 1013.39 1013.67 1013.88 1014.03 1014.16 1014.28 1014.42 1014.59 1014.76 1014.93 1015.07 1015.17 1015.22 1015.21 1015.16 1015.09 1015.01 1014.93 1014.86 1014.80 1014.74 1014.66 1014.57 1014.44 1014.28 1014.09 1013.90 1013.72 1013.56 1013.43
1012.22 1012.70 1013.17 1013.56 1013.81 1013.86 1013.71 1013.38 1012.91 1012.39 1011.90 1011.51 1011.29 1011.26 1011.43 1011.74 1012.16 1012.62 1013.06 1013.45 1013.76 1013.99 1014.15 1014.27 1014.38 1014.48 1014.60 1014.73 1014.85 1014.94 1015.01 1015.02 1015.00 1014.93 1014.85 1014.75 1014.66 1014.58 1014.50 1014.43 1014.35 1014.25 1014.12 1013.96 1013.79 1013.60 1013.42 1013.25 1013.11
1012.13 1012.50 1012.85 1013.12 1013.27 1013.25 1013.06 1012.73 1012.29 1011.83 1011.41 1011.11 1010.97 1011.02 1011.24 1011.60 1012.06 1012.56 1013.03 1013.44 1013.77 1014.01 1014.19 1014.31 1014.40 1014.49 1014.57 1014.66 1014.73 1014.79 1014.81 1014.79 1014.74 1014.65 1014.55 1014.44 1014.34 1014.25 1014.17 1014.09 1014.01 1013.91 1013.79 1013.65 1013.48 1013.31 1013.13 1012.95 1012.79
Thickness
5827 5829 5831 5823 5815 5817 5816 5824 5831 5833 5838 5847 5850 5847 5840 5833 5825 5814 5833 5842 5837 5831 5821 5809 5804 5801 5798 5796 5794 5791 5788 5785 5782 5780 5777 5774 5772 5769 5767 5765 5763 5761 5760 5759 5757 5756 5755 5754 5753
5832 5831 5825 5819 5813 5811 5813 5825 5828 5832 5841 5849 5849 5845 5838 5830 5831 5828 5832 5835 5832 5827 5818 5810 5802 5799 5796 5793 5791 5788 5785 5782 5780 5777 5774 5772 5769 5767 5765 5763 5761 5760 5759 5757 5756 5754 5753 5752 5750
5831 5830 5820 5816 5812 5810 5813 5826 5830 5840 5849 5847 5841 5842 5834 5825 5827 5827 5832 5832 5829 5822 5815 5807 5800 5796 5793 5790 5788 5785 5782 5779 5777 5774 5772 5769 5767 5765 5763 5761 5759 5758 5757 5755 5754 5752 5751 5749 5748
5827 5821 5818 5811 5811 5818 5820 5828 5835 5838 5843 5846 5842 5831 5829 5827 5830 5832 5832 5830 5824 5817 5812 5803 5796 5793 5789 5787 5784 5782 5779 5776 5773 5771 5768 5766 5764 5762 5760 5759 5757 5756 5754 5753 5751 5750 5749 5747 5746
5824 5817 5808 5808 5813 5819 5827 5832 5836 5834 5834 5840 5840 5827 5819 5824 5833 5831 5828 5826 5820 5816 5810 5800 5792 5789 5785 5783 5780 5778 5775 5773 5770 5768 5765 5763 5761 5759 5758 5756 5754 5753 5752 5750 5749 5747 5746 5744 5743
5813 5811 5800 5803 5808 5814 5825 5832 5835 5832 5831 5836 5835 5825 5814 5822 5825 5825 5825 5822 5819 5814 5808 5797 5789 5785 5782 5779 5777 5774 5772 5769 5767 5765 5763 5761 5758 5756 5755 5753 5752 5751 5750 5748 5746 5745 5743 5742 5741
5804 5800 5797 5799 5799 5804 5815 5829 5828 5825 5824 5829 5836 5821 5813 5817 5821 5823 5821 5819 5816 5812 5806 5796 5789 5783 5778 5775 5773 5770 5768 5766 5764 5762 5760 5758 5756 5754 5752 5751 5749 5748 5747 5745 5744 5742 5741 5740 5738
5805 5797 5793 5795 5792 5797 5814 5823 5826 5825 5821 5832 5836 5820 5811 5812 5817 5817 5814 5811 5810 5807 5802 5794 5790 5783 5778 5774 5769 5767 5765 5762 5761 5759 5757 5754 5753 5751 5749 5749 5747 5745 5744 5742 5741 5740 5739 5737 5736
5797 5784 5784 5789 5789 5797 5810 5811 5819 5828 5823 5823 5827 5826 5822 5815 5811 5806 5802 5801 5799 5798 5797 5793 5788 5782 5778 5775 5770 5765 5762 5759 5757 5756 5753 5751 5753 5752 5749 5748 5745 5743 5741 5740 5739 5738 5736 5735 5735
5785 5777 5782 5791 5795 5796 5801 5804 5811 5815 5811 5809 5810 5811 5812 5808 5804 5799 5796 5792 5790 5788 5790 5788 5784 5778 5775 5773 5768 5765 5763 5759 5756 5756 5753 5751 5750 5749 5748 5745 5741 5740 5738 5737 5736 5735 5735 5734 5737
5781 5775 5783 5789 5795 5796 5796 5800 5809 5807 5800 5803 5801 5800 5803 5802 5799 5797 5794 5792 5788 5785 5783 5782 5778 5773 5770 5768 5765 5763 5761 5756 5753 5751 5749 5747 5745 5744 5743 5741 5739 5737 5736 5735 5735 5734 5734 5736 5737
5775 5778 5780 5783 5790 5790 5791 5795 5796 5798 5797 5806 5806 5803 5800 5797 5796 5794 5790 5788 5785 5780 5778 5777 5773 5768 5764 5763 5761 5758 5756 5753 5750 5746 5744 5743 5740 5740 5739 5737 5736 5734 5733 5732 5731 5730 5731 5732 5733
5771 5774 5780 5783 5785 5787 5788 5787 5786 5787 5795 5799 5799 5796 5793 5792 5791 5790 5788 5784 5780 5774 5772 5770 5767 5763 5760 5756 5754 5754 5751 5749 5747 5743 5741 5738 5737 5737 5735 5732 5730 5731 5730 5729 5727 5727 5727 5728 5728
5776 5776 5776 5779 5779 5780 5777 5778 5779 5777 5788 5789 5788 5785 5786 5786 5785 5782 5778 5775 5772 5769 5767 5764 5760 5757 5754 5751 5748 5747 5746 5744 5742 5740 5738 5735 5734 5733 5731 5729 5727 5726 5726 5725 5724 5724 5724 5724 5724
5778 5770 5772 5774 5774 5775 5774 5764 5765 5773 5780 5778 5778 5777 5776 5776 5776 5774 5772 5769 5767 5764 5762 5758 5755 5752 5749 5747 5744 5742 5741 5741 5738 5736 5733 5731 5731 5729 5728 5727 5725 5723 5722 5721 5720 5720 5720 5721 5722
5775 5768 5764 5768 5770 5771 5767 5754 5759 5770 5772 5768 5768 5766 5765 5765 5769 5769 5768 5765 5763 5760 5756 5753 5752 5748 5746 5744 5741 5740 5739 5736 5735 5733 5730 5727 5725 5724 5723 5722 5721 5717 5716 5717 5716 5716 5716 5716 5717
5770 5764 5762 5761 5766 5767 5765 5753 5755 5765 5764 5760 5760 5760 5759 5758 5760 5762 5762 5761 5758 5755 5751 5748 5747 5745 5743 5740 5738 5737 5733 5731 5730 5729 5726 5723 5720 5719 5718 5717 5714 5711 5712 5712 5711 5712 5710 5710 5711
5761 5762 5758 5755 5758 5759 5755 5748 5750 5756 5758 5755 5755 5755 5754 5752 5752 5755 5756 5754 5752 5750 5747 5745 5743 5740 5738 5737 5734 5732 5729 5727 5726 5724 5720 5717 5715 5712 5711 5711 5708 5707 5707 5705 5704 5701 5701 5702 5704
5765 5759 5752 5750 5755 5751 5746 5741 5742 5748 5750 5749 5749 5749 5749 5748 5750 5751 5750 5749 5746 5743 5741 5739 5737 5735 5733 5732 5730 5726 5725 5723 5721 5719 5714 5711 5708 5706 5703 5704 5701 5700 5700 5697 5697 5696 5696 5696 5698
5764 5756 5751 5747 5750 5747 5740 5736 5740 5741 5742 5744 5743 5743 5744 5744 5744 5744 5745 5744 5742 5739 5738 5736 5733 5732 5730 5728 5725 5722 5720 5720 5718 5714 5709 5705 5702 5699 5699 5695 5694 5694 5691 5689 5688 5687 5687 5690 5692
5762 5757 5752 5745 5744 5746 5738 5728 5731 5735 5739 5740 5742 5742 5743 5742 5741 5741 5742 5742 5741 5738 5736 5735 5731 5729 5726 5723 5721 5718 5713 5712 5711 5707 5704 5700 5696 5693 5690 5689 5687 5686 5685 5685 5682 5680 5679 5680 5683
5757 5761 5755 5746 5740 5734 5736 5719 5729 5734 5732 5735 5739 5741 5742 5743 5743 5743 5742 5741 5740 5738 5737 5733 5729 5725 5722 5718 5716 5711 5707 5704 5703 5699 5698 5693 5689 5686 5684 5681 5680 5678 5679 5677 5675 5677 5673 5671 5674
5760 5762 5757 5751 5745 5738 5737 5730 5730 5737 5731 5736 5741 5743 5745 5746 5745 5743 5742 5741 5740 5739 5736 5732 5726 5721 5717 5713 5709 5703 5702 5700 5698 5693 5689 5684 5684 5680 5677 5675 5673 5671 5671 5670 5667 5666 5665 5666 5667
5765 5758 5754 5753 5751 5728 5734 5731 5729 5739 5740 5742 5745 5746 5746 5746 5746 5745 5744 5742 5739 5737 5734 5729 5722 5716 5712 5707 5703 5698 5694 5690 5687 5684 5682 5680 5680 5677 5674 5669 5666 5664 5664 5662 5660 5659 5659 5658 5659
5763 5753 5741 5737 5732 5729 5739 5735 5737 5750 5752 5751 5748 5747 5748 5747 5746 5744 5742 5739 5736 5733 5729 5725 5718 5712 5708 5704 5699 5694 5689 5685 5681 5679 5678 5674 5673 5672 5668 5664 5659 5658 5656 5654 5653 5652 5652 5652 5650
5764 5760 5741 5728 5730 5736 5737 5735 5748 5757 5758 5757 5755 5753 5750 5748 5747 5743 5740 5737 5734 5730 5725 5720 5714 5708 5704 5699 5694 5690 5685 5683 5681 5676 5671 5669 5667 5665 5660 5655 5652 5650 5649 5648 5647 5646 5646 5646 5645
5764 5764 5768 5754 5745 5739 5741 5744 5753 5756 5754 5753 5752 5751 5750 5749 5746 5743 5740 5736 5732 5727 5722 5717 5710 5704 5700 5696 5690 5685 5681 5677 5673 5668 5665 5665 5660 5657 5654 5649 5646 5644 5642 5640 5638 5639 5638 5638 5638
5773 5770 5759 5752 5732 5730 5737 5741 5746 5749 5751 5753 5752 5751 5751 5749 5747 5743 5740 5735 5730 5725 5719 5713 5707 5700 5696 5692 5687 5684 5678 5673 5668 5664 5660 5656 5652 5649 5645 5643 5641 5638 5636 5634 5631 5632 5632 5631 5630
5761 5760 5759 5758 5750 5736 5730 5743 5766 5761 5760 5757 5756 5756 5753 5751 5747 5743 5737 5732 5727 5722 5716 5709 5704 5698 5693 5688 5683 5677 5673 5669 5664 5660 5656 5652 5647 5643 5640 5637 5634 5632 5630 5628 5625 5625 5624 5623 5623
5772 5767 5760 5745 5742 5745 5742 5748 5774 5771 5769 5765 5762 5758 5755 5751 5747 5741 5735 5729 5723 5718 5713 5707 5702 5696 5691 5686 5679 5674 5669 5664 5660 5657 5652 5647 5642 5638 5635 5631 5628 5626 5624 5622 5619 5617 5617 5615 5615